When you browse on this site, cookies collect data to enhance your experience and personalize the content and advertising you see.
Visit our Privacy Policy to learn more. By continuing to use the site, you agree to this use of cookies and data.
  • In Österreich
  • Länderverzeichnis
  • Für 7 Tage
  • Wassertemperatur
  • Wetterkarte
  • News
  • Widgets
  • user-avatar
    Anmelden

    Stündliche Wetter Tula de Allende

    Heute, 24 Januar, Freitag

    Zeit Temperatur Niederschläge Wind Luftdruck Luftfeuchtigkeit
    00:00 +12°C° 0.1 mm 1 m/S 593 mmHg 84%
    01:00 +12°C° 0.1 mm 1 m/S 592 mmHg 84%
    02:00 +12°C° 0.1 mm 1 m/S 592 mmHg 84%
    03:00 +12°C° 0 mm 1 m/S 592 mmHg 86%
    04:00 +10°C° 0 mm 0 m/S 592 mmHg 88%
    05:00 +10°C° 0 mm 0 m/S 592 mmHg 89%
    06:00 +11°C° 0 mm 0 m/S 593 mmHg 86%
    07:00 +12°C° 0 mm 1 m/S 594 mmHg 82%
    08:00 +13°C° 0 mm 1 m/S 595 mmHg 78%
    09:00 +14°C° 0 mm 1 m/S 595 mmHg 70%
    10:00 +16°C° 0 mm 1 m/S 595 mmHg 63%
    11:00 +17°C° 0 mm 2 m/S 596 mmHg 55%
    12:00 +18°C° 0.1 mm 2 m/S 595 mmHg 52%
    13:00 +19°C° 0.1 mm 2 m/S 595 mmHg 49%
    14:00 +19°C° 0.1 mm 2 m/S 595 mmHg 46%
    15:00 +18°C° 0.1 mm 2 m/S 594 mmHg 51%
    16:00 +18°C° 0.1 mm 3 m/S 594 mmHg 56%
    17:00 +17°C° 0.1 mm 3 m/S 594 mmHg 61%
    18:00 +16°C° 0.1 mm 2 m/S 594 mmHg 70%
    19:00 +14°C° 0.1 mm 2 m/S 594 mmHg 79%
    20:00 +13°C° 0.1 mm 1 m/S 594 mmHg 87%
    21:00 +13°C° 0 mm 1 m/S 594 mmHg 88%
    22:00 +12°C° 0 mm 1 m/S 594 mmHg 89%
    23:00 +12°C° 0 mm 1 m/S 594 mmHg 90%

    Morgen, 25 Januar, Samstag

    Zeit Temperatur Niederschläge Wind Luftdruck Luftfeuchtigkeit
    00:00 +12°C° 0 mm 1 m/S 593 mmHg 88%
    01:00 +12°C° 0 mm 1 m/S 593 mmHg 87%
    02:00 +11°C° 0 mm 0 m/S 593 mmHg 85%
    03:00 +11°C° 0 mm 0 m/S 593 mmHg 85%
    04:00 +11°C° 0 mm 0 m/S 593 mmHg 86%
    05:00 +10°C° 0 mm 0 m/S 593 mmHg 86%
    06:00 +12°C° 0 mm 1 m/S 593 mmHg 81%
    07:00 +13°C° 0 mm 1 m/S 594 mmHg 77%
    08:00 +14°C° 0 mm 1 m/S 595 mmHg 72%
    09:00 +16°C° 0 mm 1 m/S 596 mmHg 62%
    10:00 +18°C° 0 mm 2 m/S 596 mmHg 53%
    11:00 +20°C° 0 mm 2 m/S 597 mmHg 43%
    12:00 +21°C° 0 mm 3 m/S 596 mmHg 38%
    13:00 +22°C° 0 mm 3 m/S 596 mmHg 34%
    14:00 +23°C° 0 mm 4 m/S 596 mmHg 29%
    15:00 +22°C° 0 mm 4 m/S 595 mmHg 32%
    16:00 +21°C° 0 mm 4 m/S 595 mmHg 35%
    17:00 +20°C° 0 mm 4 m/S 595 mmHg 37%
    18:00 +18°C° 0 mm 3 m/S 594 mmHg 42%
    19:00 +17°C° 0 mm 3 m/S 594 mmHg 47%
    20:00 +15°C° 0 mm 2 m/S 594 mmHg 52%
    21:00 +15°C° 0 mm 2 m/S 594 mmHg 54%
    22:00 +14°C° 0 mm 2 m/S 594 mmHg 57%
    23:00 +13°C° 0 mm 1 m/S 594 mmHg 59%

    übermorgen, 26 Januar, Sonntag

    Zeit Temperatur Niederschläge Wind Luftdruck Luftfeuchtigkeit
    00:00 +13°C° 0 mm 1 m/S 593 mmHg 60%
    01:00 +12°C° 0 mm 1 m/S 593 mmHg 62%
    02:00 +12°C° 0 mm 1 m/S 593 mmHg 63%
    03:00 +12°C° 0 mm 1 m/S 593 mmHg 64%
    04:00 +11°C° 0 mm 1 m/S 593 mmHg 66%
    05:00 +11°C° 0 mm 1 m/S 592 mmHg 67%
    06:00 +12°C° 0 mm 1 m/S 593 mmHg 63%
    07:00 +13°C° 0 mm 1 m/S 594 mmHg 59%
    08:00 +14°C° 0 mm 1 m/S 595 mmHg 55%
    09:00 +16°C° 0 mm 1 m/S 596 mmHg 50%
    10:00 +19°C° 0 mm 1 m/S 596 mmHg 44%
    11:00 +21°C° 0 mm 1 m/S 596 mmHg 39%
    12:00 +20°C° 0 mm 2 m/S 596 mmHg 39%
    13:00 +20°C° 0 mm 3 m/S 595 mmHg 40%
    14:00 +20°C° 0 mm 4 m/S 594 mmHg 40%
    15:00 +19°C° 0 mm 3 m/S 594 mmHg 44%
    16:00 +18°C° 0 mm 3 m/S 594 mmHg 48%
    17:00 +18°C° 0 mm 2 m/S 594 mmHg 51%
    18:00 +17°C° 0 mm 2 m/S 594 mmHg 55%
    19:00 +16°C° 0 mm 2 m/S 594 mmHg 59%
    20:00 +15°C° 0 mm 1 m/S 594 mmHg 62%
    21:00 +14°C° 0 mm 1 m/S 594 mmHg 65%
    22:00 +13°C° 0 mm 1 m/S 594 mmHg 67%
    23:00 +13°C° 0 mm 1 m/S 593 mmHg 70%

    27 Januar, Montag

    Zeit Temperatur Niederschläge Wind Luftdruck Luftfeuchtigkeit
    00:00 +12°C° 0 mm 1 m/S 593 mmHg 71%
    01:00 +12°C° 0 mm 1 m/S 592 mmHg 72%
    02:00 +12°C° 0 mm 1 m/S 592 mmHg 74%
    03:00 +11°C° 0 mm 1 m/S 592 mmHg 74%
    04:00 +11°C° 0 mm 1 m/S 592 mmHg 75%
    05:00 +11°C° 0 mm 1 m/S 592 mmHg 75%
    06:00 +12°C° 0 mm 1 m/S 593 mmHg 70%
    07:00 +13°C° 0 mm 1 m/S 594 mmHg 64%
    08:00 +14°C° 0 mm 1 m/S 594 mmHg 59%
    09:00 +16°C° 0 mm 1 m/S 595 mmHg 49%
    10:00 +19°C° 0 mm 1 m/S 595 mmHg 40%
    11:00 +21°C° 0 mm 1 m/S 596 mmHg 30%
    12:00 +21°C° 0 mm 2 m/S 596 mmHg 26%
    13:00 +23°C° 0 mm 2 m/S 595 mmHg 22%
    14:00 +25°C° 0 mm 3 m/S 595 mmHg 18%
    15:00 +24°C° 0 mm 3 m/S 595 mmHg 22%
    16:00 +22°C° 0 mm 3 m/S 594 mmHg 25%
    17:00 +21°C° 0 mm 3 m/S 594 mmHg 29%
    18:00 +19°C° 0 mm 3 m/S 594 mmHg 35%
    19:00 +17°C° 0 mm 2 m/S 594 mmHg 42%
    20:00 +15°C° 0 mm 2 m/S 593 mmHg 49%
    21:00 +14°C° 0 mm 2 m/S 593 mmHg 50%
    22:00 +14°C° 0 mm 1 m/S 593 mmHg 52%
    23:00 +13°C° 0 mm 1 m/S 592 mmHg 54%

    28 Januar, Dienstag

    Zeit Temperatur Niederschläge Wind Luftdruck Luftfeuchtigkeit
    00:00 +12°C° 0 mm 1 m/S 592 mmHg 53%
    01:00 +12°C° 0 mm 1 m/S 591 mmHg 52%
    02:00 +12°C° 0 mm 1 m/S 591 mmHg 51%
    03:00 +11°C° 0 mm 1 m/S 591 mmHg 52%
    04:00 +11°C° 0 mm 1 m/S 591 mmHg 52%
    05:00 +10°C° 0 mm 1 m/S 591 mmHg 53%
    06:00 +12°C° 0 mm 1 m/S 592 mmHg 49%
    07:00 +13°C° 0 mm 1 m/S 593 mmHg 44%
    08:00 +14°C° 0 mm 0 m/S 594 mmHg 40%
    09:00 +16°C° 0 mm 1 m/S 594 mmHg 36%
    10:00 +19°C° 0 mm 1 m/S 595 mmHg 32%
    11:00 +21°C° 0 mm 1 m/S 595 mmHg 28%
    12:00 +20°C° 0 mm 2 m/S 595 mmHg 26%
    13:00 +21°C° 0 mm 2 m/S 594 mmHg 24%
    14:00 +23°C° 0 mm 2 m/S 594 mmHg 22%
    15:00 +21°C° 0 mm 3 m/S 594 mmHg 24%
    16:00 +20°C° 0 mm 3 m/S 594 mmHg 27%
    17:00 +19°C° 0 mm 3 m/S 594 mmHg 29%
    18:00 +17°C° 0 mm 3 m/S 593 mmHg 44%
    19:00 +16°C° 0 mm 3 m/S 593 mmHg 58%
    20:00 +14°C° 0 mm 2 m/S 593 mmHg 73%
    21:00 +13°C° 0 mm 2 m/S 593 mmHg 79%
    22:00 +13°C° 0 mm 1 m/S 593 mmHg 86%
    23:00 +12°C° 0 mm 1 m/S 593 mmHg 92%

    29 Januar, Mittwoch

    Zeit Temperatur Niederschläge Wind Luftdruck Luftfeuchtigkeit
    00:00 +12°C° 0 mm 1 m/S 593 mmHg 92%
    01:00 +12°C° 0 mm 1 m/S 593 mmHg 92%
    02:00 +12°C° 0 mm 1 m/S 592 mmHg 92%
    03:00 +12°C° 0 mm 1 m/S 592 mmHg 91%
    04:00 +12°C° 0 mm 1 m/S 592 mmHg 91%
    05:00 +11°C° 0 mm 1 m/S 592 mmHg 90%
    06:00 +12°C° 0 mm 1 m/S 593 mmHg 86%
    07:00 +12°C° 0 mm 1 m/S 593 mmHg 82%
    08:00 +12°C° 0 mm 1 m/S 593 mmHg 78%
    09:00 +14°C° 0 mm 1 m/S 594 mmHg 66%
    10:00 +18°C° 0 mm 1 m/S 594 mmHg 55%
    11:00 +19°C° 0 mm 2 m/S 595 mmHg 43%
    12:00 +20°C° 0 mm 2 m/S 595 mmHg 36%
    13:00 +21°C° 0 mm 3 m/S 595 mmHg 29%
    14:00 +23°C° 0 mm 4 m/S 594 mmHg 22%
    15:00 +22°C° 0 mm 4 m/S 594 mmHg 25%
    16:00 +20°C° 0 mm 4 m/S 593 mmHg 28%
    17:00 +19°C° 0 mm 4 m/S 593 mmHg 31%
    18:00 +17°C° 0 mm 3 m/S 593 mmHg 39%
    19:00 +16°C° 0 mm 2 m/S 592 mmHg 47%
    20:00 +14°C° 0 mm 2 m/S 592 mmHg 54%
    21:00 +13°C° 0 mm 2 m/S 592 mmHg 57%
    22:00 +13°C° 0 mm 2 m/S 592 mmHg 59%
    23:00 +12°C° 0 mm 2 m/S 591 mmHg 61%
    Mehr zeigen